TimeEDT,TemperatureF,Dew PointF,Humidity,Sea Level PressureIn,VisibilityMPH,Wind Direction,Wind SpeedMPH,Gust SpeedMPH,PrecipitationIn,Events,Conditions,WindDirDegrees,DateUTC
12:15 AM,71.6,71.6,100,-9999,10.0,North,3.5,-,N/A,,Clear,10,2013-09-18 04:15:00
12:35 AM,71.6,71.6,100,-9999,10.0,NNE,4.6,-,N/A,,Clear,30,2013-09-18 04:35:00
12:55 AM,71.6,71.6,100,-9999,10.0,NE,3.5,-,N/A,,Clear,50,2013-09-18 04:55:00
1:15 AM,71.6,71.6,100,-9999,10.0,North,3.5,-,N/A,,Clear,10,2013-09-18 05:15:00
1:35 AM,71.6,71.6,100,-9999,10.0,NNE,3.5,-,N/A,,Clear,30,2013-09-18 05:35:00
1:55 AM,69.8,69.8,100,-9999,7.0,NNE,3.5,-,N/A,,Clear,20,2013-09-18 05:55:00
2:15 AM,69.8,69.8,100,-9999,7.0,NNE,3.5,-,N/A,,Clear,20,2013-09-18 06:15:00
2:35 AM,69.8,69.8,100,-9999,7.0,Calm,Calm,-,N/A,,Clear,0,2013-09-18 06:35:00
2:55 AM,69.8,69.8,100,-9999,7.0,North,3.5,-,N/A,,Clear,10,2013-09-18 06:55:00
3:15 AM,69.8,69.8,100,-9999,7.0,NNE,3.5,-,N/A,,Clear,30,2013-09-18 07:15:00
3:35 AM,69.8,69.8,100,-9999,7.0,NNE,4.6,-,N/A,,Clear,20,2013-09-18 07:35:00
3:55 AM,69.8,69.8,100,-9999,7.0,NNE,3.5,-,N/A,,Clear,20,2013-09-18 07:55:00
4:15 AM,69.8,69.8,100,-9999,5.0,NNE,4.6,-,N/A,,Clear,20,2013-09-18 08:15:00
4:35 AM,69.8,69.8,100,-9999,7.0,NE,3.5,-,N/A,,Mostly Cloudy,40,2013-09-18 08:35:00
4:55 AM,69.8,69.8,100,-9999,7.0,Calm,Calm,-,N/A,,Overcast,0,2013-09-18 08:55:00
5:15 AM,69.8,69.8,100,-9999,7.0,NNE,3.5,-,N/A,,Scattered Clouds,30,2013-09-18 09:15:00
5:35 AM,69.8,69.8,100,-9999,7.0,NNE,4.6,-,N/A,,Clear,20,2013-09-18 09:35:00
5:55 AM,69.8,69.8,100,-9999,7.0,NNE,4.6,-,N/A,,Clear,30,2013-09-18 09:55:00
6:15 AM,69.8,69.8,100,-9999,7.0,NNE,3.5,-,N/A,,Scattered Clouds,20,2013-09-18 10:15:00
6:35 AM,69.8,69.8,100,-9999,5.0,North,3.5,-,N/A,,Scattered Clouds,350,2013-09-18 10:35:00
6:55 AM,69.8,69.8,100,-9999,5.0,Calm,Calm,-,N/A,,Clear,0,2013-09-18 10:55:00
7:15 AM,69.8,69.8,100,-9999,5.0,North,3.5,-,N/A,,Clear,360,2013-09-18 11:15:00
7:35 AM,69.8,69.8,100,-9999,4.0,NNE,4.6,-,N/A,,Clear,20,2013-09-18 11:35:00
7:55 AM,69.8,69.8,100,-9999,4.0,NNE,4.6,-,N/A,,Clear,20,2013-09-18 11:55:00
8:15 AM,71.6,71.6,100,-9999,5.0,NE,5.8,-,N/A,,Clear,40,2013-09-18 12:15:00
8:35 AM,71.6,71.6,100,-9999,10.0,NNE,9.2,-,N/A,,Clear,30,2013-09-18 12:35:00
8:55 AM,73.4,73.4,100,-9999,10.0,NNE,9.2,-,N/A,,Clear,30,2013-09-18 12:55:00
9:15 AM,77.0,77.0,100,-9999,10.0,NE,6.9,-,N/A,,Clear,40,2013-09-18 13:15:00
9:35 AM,78.8,78.8,100,-9999,10.0,NE,9.2,-,N/A,,Scattered Clouds,40,2013-09-18 13:35:00
9:55 AM,78.8,78.8,100,-9999,10.0,NNE,8.1,-,N/A,,Scattered Clouds,30,2013-09-18 13:55:00
10:15 AM,80.6,80.6,100,-9999,10.0,ENE,8.1,-,N/A,,Clear,60,2013-09-18 14:15:00
10:35 AM,80.6,80.6,100,-9999,10.0,ENE,8.1,-,N/A,,Scattered Clouds,70,2013-09-18 14:35:00
10:55 AM,82.4,78.8,89,-9999,10.0,ENE,6.9,16.1,N/A,,Mostly Cloudy,70,2013-09-18 14:55:00
11:15 AM,82.4,77.0,84,-9999,10.0,East,12.7,16.1,N/A,,Mostly Cloudy,80,2013-09-18 15:15:00
11:35 AM,84.2,73.4,70,-9999,10.0,East,9.2,-,N/A,,Scattered Clouds,80,2013-09-18 15:35:00
11:55 AM,84.2,71.6,66,-9999,10.0,ENE,11.5,18.4,N/A,,Scattered Clouds,60,2013-09-18 15:55:00
12:15 PM,86.0,75.2,70,-9999,10.0,ENE,12.7,16.1,N/A,,Mostly Cloudy,70,2013-09-18 16:15:00
12:35 PM,86.0,73.4,66,-9999,10.0,East,8.1,-,N/A,,Scattered Clouds,90,2013-09-18 16:35:00
12:55 PM,86.0,71.6,62,-9999,10.0,ENE,13.8,18.4,N/A,,Mostly Cloudy,70,2013-09-18 16:55:00
1:15 PM,80.6,77.0,89,-9999,10.0,ESE,9.2,-,0.01,Rain,Light Rain,110,2013-09-18 17:15:00
1:35 PM,82.4,77.0,84,-9999,10.0,East,13.8,-,0.01,,Mostly Cloudy,80,2013-09-18 17:35:00
1:55 PM,77.0,77.0,100,-9999,5.0,ENE,10.4,18.4,0.03,Rain,Light Rain,70,2013-09-18 17:55:00
2:15 PM,78.8,78.8,100,-9999,10.0,ENE,11.5,-,N/A,,Overcast,70,2013-09-18 18:15:00
2:35 PM,77.0,77.0,100,-9999,10.0,ENE,12.7,-,0.01,Rain,Light Rain,60,2013-09-18 18:35:00
2:55 PM,77.0,77.0,100,-9999,10.0,ENE,9.2,-,0.01,,Overcast,70,2013-09-18 18:55:00
3:15 PM,78.8,77.0,94,-9999,10.0,East,11.5,-,N/A,,Overcast,90,2013-09-18 19:15:00
3:35 PM,80.6,75.2,84,-9999,10.0,East,9.2,-,N/A,,Mostly Cloudy,80,2013-09-18 19:35:00
3:55 PM,84.2,73.4,70,-9999,10.0,East,13.8,18.4,N/A,,Scattered Clouds,80,2013-09-18 19:55:00
4:15 PM,86.0,71.6,62,-9999,10.0,ENE,12.7,20.7,N/A,,Scattered Clouds,70,2013-09-18 20:15:00
4:35 PM,86.0,69.8,58,-9999,10.0,ENE,11.5,-,N/A,,Clear,70,2013-09-18 20:35:00
4:55 PM,86.0,69.8,58,-9999,10.0,East,11.5,-,N/A,,Clear,80,2013-09-18 20:55:00
5:15 PM,86.0,69.8,58,-9999,10.0,East,11.5,17.3,N/A,,Clear,90,2013-09-18 21:15:00
5:35 PM,86.0,69.8,58,-9999,10.0,ENE,9.2,17.3,N/A,,Clear,60,2013-09-18 21:35:00
5:55 PM,82.4,71.6,70,-9999,10.0,ENE,19.6,-,N/A,,Mostly Cloudy,60,2013-09-18 21:55:00
6:15 PM,77.0,71.6,83,-9999,10.0,NE,11.5,-,N/A,Thunderstorm,Unknown,50,2013-09-18 22:15:00
6:35 PM,77.0,73.4,89,-9999,10.0,NNE,8.1,-,N/A,,Mostly Cloudy,30,2013-09-18 22:35:00
6:55 PM,75.2,75.2,100,-9999,10.0,NNE,6.9,-,N/A,,Mostly Cloudy,30,2013-09-18 22:55:00
7:15 PM,75.2,75.2,100,-9999,10.0,NNE,6.9,-,N/A,,Scattered Clouds,30,2013-09-18 23:15:00
7:35 PM,73.4,73.4,100,-9999,10.0,NE,4.6,-,N/A,Rain,Light Rain,40,2013-09-18 23:35:00
7:55 PM,73.4,73.4,100,-9999,10.0,ENE,4.6,-,N/A,,Light Drizzle,60,2013-09-18 23:55:00
8:15 PM,73.4,73.4,100,-9999,10.0,NE,3.5,-,N/A,,Overcast,50,2013-09-19 00:15:00
8:35 PM,73.4,73.4,100,-9999,10.0,ENE,3.5,-,N/A,,Overcast,60,2013-09-19 00:35:00
8:55 PM,73.4,73.4,100,-9999,10.0,ENE,3.5,-,N/A,,Mostly Cloudy,60,2013-09-19 00:55:00
9:15 PM,73.4,73.4,100,-9999,10.0,NNE,4.6,-,N/A,,Clear,20,2013-09-19 01:15:00
9:35 PM,71.6,71.6,100,-9999,10.0,NE,4.6,-,N/A,,Scattered Clouds,40,2013-09-19 01:35:00
9:55 PM,71.6,71.6,100,-9999,10.0,NE,4.6,-,N/A,,Scattered Clouds,50,2013-09-19 01:55:00
10:15 PM,71.6,71.6,100,-9999,10.0,NE,3.5,-,N/A,,Clear,40,2013-09-19 02:15:00
10:35 PM,71.6,71.6,100,-9999,7.0,NNE,4.6,-,N/A,,Clear,30,2013-09-19 02:35:00
10:55 PM,71.6,71.6,100,-9999,7.0,Calm,Calm,-,N/A,,Clear,0,2013-09-19 02:55:00
11:15 PM,71.6,71.6,100,-9999,7.0,NNE,3.5,-,N/A,,Clear,30,2013-09-19 03:15:00
11:35 PM,71.6,71.6,100,-9999,7.0,NNE,4.6,-,N/A,,Clear,30,2013-09-19 03:35:00
11:55 PM,71.6,71.6,100,-9999,7.0,NE,4.6,-,N/A,,Clear,40,2013-09-19 03:55:00